Time,TemperatureF,DewpointF,PressureIn,WindDirection,WindDirectionDegrees,WindSpeedMPH,WindSpeedGustMPH,Humidity,HourlyPrecipIn,Conditions,Clouds,dailyrainin,SoftwareType,DateUTC
2013-05-25 00:01:00,47.0,46.0,30.08,WNW,285,0.0,0.0,96,0.00,,,0.14,,2013-05-25 07:01:00,
2013-05-25 00:11:00,47.0,46.0,30.08,WNW,285,0.0,0.0,96,0.00,,,0.14,,2013-05-25 07:11:00,
2013-05-25 00:21:00,47.0,46.0,30.07,WNW,285,0.0,0.0,96,0.00,,,0.14,,2013-05-25 07:21:00,
2013-05-25 00:31:00,46.0,45.0,30.08,WNW,285,0.0,0.0,96,0.00,,,0.11,,2013-05-25 07:31:00,
2013-05-25 00:41:00,46.0,45.0,30.08,WNW,285,0.0,0.0,96,0.00,,,0.11,,2013-05-25 07:41:00,
2013-05-25 00:52:00,46.0,45.0,30.08,WNW,285,0.0,0.0,97,0.00,,,0.11,,2013-05-25 07:52:00,
2013-05-25 01:02:00,46.0,45.0,30.08,WNW,285,0.0,0.0,97,0.00,,,0.11,,2013-05-25 08:02:00,
2013-05-25 01:11:00,46.0,45.0,30.08,WNW,285,0.0,0.0,97,0.00,,,0.11,,2013-05-25 08:11:00,
2013-05-25 01:22:00,46.0,45.0,30.08,WNW,285,0.0,0.0,97,0.00,,,0.11,,2013-05-25 08:22:00,
2013-05-25 01:32:00,46.0,45.0,30.07,WNW,285,0.0,0.0,97,0.00,,,0.07,,2013-05-25 08:32:00,
2013-05-25 01:42:00,46.0,45.0,30.07,WNW,285,0.0,0.0,97,0.00,,,0.07,,2013-05-25 08:42:00,
2013-05-25 01:51:00,46.0,45.0,30.07,WNW,285,0.0,0.0,97,0.00,,,0.07,,2013-05-25 08:51:00,
2013-05-25 02:01:00,46.0,45.0,30.07,WNW,285,0.0,0.0,97,0.00,,,0.07,,2013-05-25 09:01:00,
2013-05-25 02:11:00,46.0,45.0,30.07,WNW,285,0.0,0.0,97,0.00,,,0.07,,2013-05-25 09:11:00,
2013-05-25 02:21:00,46.0,45.0,30.07,WNW,285,0.0,0.0,97,0.00,,,0.07,,2013-05-25 09:21:00,
2013-05-25 02:33:00,46.0,45.0,30.07,WNW,285,0.0,0.0,97,0.00,,,0.05,,2013-05-25 09:33:00,
2013-05-25 02:42:00,46.0,45.0,30.07,WNW,285,0.0,0.0,97,0.00,,,0.05,,2013-05-25 09:42:00,
2013-05-25 02:52:00,45.0,44.0,30.07,WNW,285,0.0,0.0,97,0.00,,,0.05,,2013-05-25 09:52:00,
2013-05-25 03:02:00,45.0,44.0,30.06,WNW,285,0.0,0.0,97,0.00,,,0.05,,2013-05-25 10:02:00,
2013-05-25 03:12:00,45.0,44.0,30.06,WNW,285,0.0,0.0,97,0.00,,,0.05,,2013-05-25 10:12:00,
2013-05-25 03:22:00,45.0,44.0,30.06,WNW,285,0.0,0.0,97,0.00,,,0.05,,2013-05-25 10:22:00,
2013-05-25 03:32:00,45.0,44.0,30.06,WNW,285,0.0,0.0,97,0.00,,,0.04,,2013-05-25 10:32:00,
2013-05-25 03:42:00,45.0,44.0,30.06,WNW,285,0.0,0.0,97,0.00,,,0.04,,2013-05-25 10:42:00,
2013-05-25 03:52:00,45.0,44.0,30.06,WNW,285,0.0,0.0,98,0.00,,,0.04,,2013-05-25 10:52:00,
2013-05-25 04:02:00,45.0,44.0,30.06,WNW,285,0.0,0.0,98,0.00,,,0.04,,2013-05-25 11:02:00,
2013-05-25 04:12:00,45.0,44.0,30.06,WNW,285,0.0,0.0,98,0.00,,,0.04,,2013-05-25 11:12:00,
2013-05-25 04:21:00,45.0,44.0,30.06,WNW,285,0.0,0.0,98,0.00,,,0.04,,2013-05-25 11:21:00,
2013-05-25 04:32:00,45.0,44.0,30.06,WNW,285,0.0,0.0,98,0.00,,,0.03,,2013-05-25 11:32:00,
2013-05-25 04:41:00,45.0,44.0,30.06,WNW,285,0.0,0.0,98,0.00,,,0.03,,2013-05-25 11:41:00,
2013-05-25 04:52:00,45.0,44.0,30.06,WNW,285,0.0,0.0,98,0.00,,,0.03,,2013-05-25 11:52:00,
2013-05-25 05:01:00,44.0,43.0,30.06,WNW,285,0.0,0.0,98,0.00,,,0.03,,2013-05-25 12:01:00,
2013-05-25 05:12:00,44.0,43.0,30.06,WNW,285,0.0,0.0,98,0.00,,,0.03,,2013-05-25 12:12:00,
2013-05-25 05:21:00,44.0,43.0,30.06,WNW,285,0.0,0.0,97,0.00,,,0.03,,2013-05-25 12:21:00,
2013-05-25 05:32:00,43.0,42.0,30.06,WNW,285,0.0,0.0,97,0.00,,,0.03,,2013-05-25 12:32:00,
2013-05-25 05:42:00,43.0,42.0,30.06,WNW,285,0.0,0.0,97,0.00,,,0.03,,2013-05-25 12:42:00,
2013-05-25 05:52:00,43.0,42.0,30.06,WNW,285,0.0,0.0,98,0.00,,,0.03,,2013-05-25 12:52:00,
2013-05-25 06:02:00,43.0,42.0,30.06,WNW,285,0.0,0.0,98,0.00,,,0.03,,2013-05-25 13:02:00,
2013-05-25 06:11:00,43.0,42.0,30.06,WNW,285,0.0,0.0,98,0.00,,,0.03,,2013-05-25 13:11:00,
2013-05-25 06:21:00,43.0,42.0,30.06,WNW,285,0.0,0.0,98,0.00,,,0.03,,2013-05-25 13:21:00,
2013-05-25 06:32:00,43.0,42.0,30.06,WNW,285,0.0,0.0,98,0.00,,,0.03,,2013-05-25 13:32:00,
2013-05-25 06:42:00,43.0,42.0,30.06,WNW,285,0.0,0.0,98,0.00,,,0.03,,2013-05-25 13:42:00,
2013-05-25 06:52:00,44.0,43.0,30.06,WNW,285,0.0,0.0,98,0.00,,,0.03,,2013-05-25 13:52:00,
2013-05-25 07:02:00,44.0,43.0,30.06,WNW,285,0.0,0.0,98,0.00,,,0.03,,2013-05-25 14:02:00,
2013-05-25 07:11:00,44.0,43.0,30.06,WNW,285,0.0,0.0,98,0.00,,,0.03,,2013-05-25 14:11:00,
2013-05-25 07:22:00,44.0,43.0,30.07,WNW,285,0.0,0.0,98,0.00,,,0.03,,2013-05-25 14:22:00,
2013-05-25 07:32:00,45.0,44.0,30.06,WNW,285,0.0,0.0,98,0.00,,,0.03,,2013-05-25 14:32:00,
2013-05-25 07:41:00,45.0,44.0,30.06,WNW,285,0.0,0.0,98,0.00,,,0.03,,2013-05-25 14:41:00,
2013-05-25 07:52:00,45.0,44.0,30.06,WNW,285,0.0,0.0,98,0.00,,,0.03,,2013-05-25 14:52:00,
2013-05-25 08:01:00,45.0,44.0,30.06,WNW,285,0.0,0.0,98,0.00,,,0.03,,2013-05-25 15:01:00,
2013-05-25 08:11:00,45.0,44.0,30.06,WNW,285,0.0,0.0,98,0.00,,,0.03,,2013-05-25 15:11:00,
2013-05-25 08:22:00,46.0,45.0,30.06,WNW,285,0.0,0.0,98,0.00,,,0.03,,2013-05-25 15:22:00,
2013-05-25 08:33:00,47.0,46.0,30.06,WSW,240,0.0,0.0,98,0.00,,,0.01,,2013-05-25 15:33:00,
2013-05-25 08:43:00,47.0,46.0,30.06,WSW,240,0.0,0.0,98,0.00,,,0.01,,2013-05-25 15:43:00,
2013-05-25 08:53:00,48.0,47.0,30.06,NNW,344,0.0,0.0,96,0.00,,,0.01,,2013-05-25 15:53:00,
2013-05-25 09:03:00,49.0,47.0,30.06,ESE,117,0.0,0.0,92,0.00,,,0.01,,2013-05-25 16:03:00,
2013-05-25 09:12:00,49.0,47.0,30.06,ESE,117,0.0,0.0,92,0.00,,,0.01,,2013-05-25 16:12:00,
2013-05-25 09:22:00,50.0,47.0,30.06,WSW,252,0.0,0.0,90,0.00,,,0.01,,2013-05-25 16:22:00,
2013-05-25 09:32:00,51.0,47.0,30.06,SW,217,0.0,0.0,87,0.00,,,0.01,,2013-05-25 16:32:00,
2013-05-25 09:42:00,51.0,47.0,30.06,SW,217,0.0,0.0,87,0.00,,,0.01,,2013-05-25 16:42:00,
2013-05-25 09:52:00,52.0,48.0,30.06,South,185,0.0,3.0,85,0.00,,,0.01,,2013-05-25 16:52:00,
2013-05-25 10:02:00,53.0,47.0,30.06,WSW,248,0.0,1.0,81,0.00,,,0.01,,2013-05-25 17:02:00,
2013-05-25 10:11:00,53.0,47.0,30.06,WSW,248,0.0,1.0,81,0.00,,,0.01,,2013-05-25 17:11:00,
2013-05-25 10:22:00,53.0,46.0,30.06,NW,304,0.0,1.0,76,0.00,,,0.01,,2013-05-25 17:22:00,
2013-05-25 10:32:00,54.0,47.0,30.05,NE,44,0.0,1.0,78,0.00,,,0.01,,2013-05-25 17:32:00,
2013-05-25 10:41:00,54.0,47.0,30.05,NE,44,0.0,1.0,78,0.00,,,0.01,,2013-05-25 17:41:00,
2013-05-25 10:52:00,55.0,47.0,30.05,SSW,202,0.0,3.0,74,0.00,,,0.01,,2013-05-25 17:52:00,
2013-05-25 11:01:00,56.0,47.0,30.04,West,261,0.0,5.0,72,0.00,,,0.01,,2013-05-25 18:01:00,
2013-05-25 11:11:00,56.0,47.0,30.04,West,261,0.0,5.0,72,0.00,,,0.01,,2013-05-25 18:11:00,
2013-05-25 11:21:00,57.0,48.0,30.04,WSW,256,0.0,3.0,73,0.00,,,0.01,,2013-05-25 18:21:00,
2013-05-25 11:32:00,58.0,47.0,30.04,SW,214,0.0,4.0,67,0.00,,,0.01,,2013-05-25 18:32:00,
2013-05-25 11:42:00,58.0,47.0,30.04,SW,214,0.0,4.0,67,0.00,,,0.01,,2013-05-25 18:42:00,
2013-05-25 11:52:00,59.0,48.0,30.04,WNW,302,0.0,2.0,67,0.00,,,0.01,,2013-05-25 18:52:00,
2013-05-25 12:01:00,59.0,48.0,30.04,East,89,0.0,4.0,66,0.00,,,0.01,,2013-05-25 19:01:00,
2013-05-25 12:11:00,59.0,48.0,30.04,East,89,0.0,4.0,66,0.00,,,0.01,,2013-05-25 19:11:00,
2013-05-25 12:21:00,60.0,48.0,30.03,WSW,241,0.0,5.0,65,0.00,,,0.01,,2013-05-25 19:21:00,
2013-05-25 12:31:00,59.0,47.0,30.03,SW,214,0.0,6.0,64,0.00,,,0.01,,2013-05-25 19:31:00,
2013-05-25 12:41:00,59.0,47.0,30.03,SW,214,0.0,6.0,64,0.00,,,0.01,,2013-05-25 19:41:00,
2013-05-25 12:52:00,59.0,47.0,30.03,SW,217,0.0,5.0,65,0.00,,,0.01,,2013-05-25 19:52:00,
2013-05-25 13:02:00,60.0,46.0,30.03,SW,232,0.0,3.0,59,0.00,,,0.01,,2013-05-25 20:02:00,
2013-05-25 13:11:00,60.0,46.0,30.03,SW,232,0.0,3.0,59,0.00,,,0.01,,2013-05-25 20:11:00,
2013-05-25 13:21:00,61.0,48.0,30.03,SE,141,0.0,3.0,62,0.00,,,0.01,,2013-05-25 20:21:00,
2013-05-25 13:32:00,60.0,47.0,30.03,SSW,211,0.0,2.0,61,0.00,,,0.00,,2013-05-25 20:32:00,
2013-05-25 13:42:00,60.0,47.0,30.03,SSW,211,0.0,2.0,61,0.00,,,0.00,,2013-05-25 20:42:00,
2013-05-25 13:51:00,59.0,47.0,30.03,SW,219,0.0,1.0,64,0.00,,,0.00,,2013-05-25 20:51:00,
2013-05-25 14:02:00,59.0,47.0,30.03,ENE,67,0.0,2.0,65,0.00,,,0.00,,2013-05-25 21:02:00,
2013-05-25 14:11:00,59.0,47.0,30.03,ENE,67,0.0,2.0,65,0.00,,,0.00,,2013-05-25 21:11:00,
2013-05-25 14:21:00,60.0,47.0,30.03,NW,311,0.0,2.0,63,0.00,,,0.00,,2013-05-25 21:21:00,
2013-05-25 14:33:00,60.0,47.0,30.03,SSW,205,0.0,6.0,62,0.00,,,0.00,,2013-05-25 21:33:00,
2013-05-25 14:43:00,60.0,47.0,30.03,SSW,205,0.0,6.0,62,0.00,,,0.00,,2013-05-25 21:43:00,
2013-05-25 14:53:00,60.0,48.0,30.03,SW,220,0.0,2.0,64,0.00,,,0.00,,2013-05-25 21:53:00,
2013-05-25 15:02:00,60.0,47.0,30.03,WNW,291,0.0,1.0,61,0.00,,,0.00,,2013-05-25 22:02:00,
2013-05-25 15:12:00,60.0,47.0,30.03,WNW,291,0.0,1.0,61,0.00,,,0.00,,2013-05-25 22:12:00,
2013-05-25 15:22:00,60.0,46.0,30.03,WSW,245,0.0,1.0,60,0.00,,,0.00,,2013-05-25 22:22:00,
2013-05-25 15:32:00,60.0,48.0,30.03,SW,217,0.0,4.0,65,0.00,,,0.00,,2013-05-25 22:32:00,
2013-05-25 15:42:00,60.0,48.0,30.03,SW,217,0.0,4.0,65,0.00,,,0.00,,2013-05-25 22:42:00,
2013-05-25 15:52:00,60.0,49.0,30.03,SSW,193,0.0,0.0,67,0.00,,,0.00,,2013-05-25 22:52:00,
2013-05-25 16:02:00,59.0,52.0,30.03,SW,236,0.0,2.0,77,0.00,,,0.00,,2013-05-25 23:02:00,
2013-05-25 16:12:00,59.0,52.0,30.03,SW,236,0.0,2.0,77,0.00,,,0.00,,2013-05-25 23:12:00,
2013-05-25 16:21:00,58.0,50.0,30.02,SW,218,0.0,1.0,75,0.00,,,0.00,,2013-05-25 23:21:00,
2013-05-25 16:32:00,57.0,49.0,30.02,WNW,286,0.0,0.0,75,0.00,,,0.00,,2013-05-25 23:32:00,
2013-05-25 16:42:00,57.0,49.0,30.02,WNW,286,0.0,0.0,75,0.00,,,0.00,,2013-05-25 23:42:00,
2013-05-25 16:52:00,57.0,50.0,30.02,NW,311,0.0,3.0,78,0.00,,,0.00,,2013-05-25 23:52:00,
2013-05-25 17:01:00,56.0,51.0,30.02,NW,314,0.0,0.0,82,0.01,,,0.01,,2013-05-26 00:01:00,
2013-05-25 17:11:00,56.0,51.0,30.02,NW,314,0.0,0.0,82,0.01,,,0.01,,2013-05-26 00:11:00,
2013-05-25 17:21:00,57.0,52.0,30.01,WNW,288,0.0,1.0,82,0.01,,,0.01,,2013-05-26 00:21:00,
2013-05-25 17:31:00,57.0,50.0,30.01,NW,316,0.0,4.0,77,0.01,,,0.01,,2013-05-26 00:31:00,
2013-05-25 17:42:00,57.0,50.0,30.01,NW,316,0.0,4.0,77,0.01,,,0.01,,2013-05-26 00:42:00,
2013-05-25 17:52:00,57.0,50.0,30.01,West,278,0.0,4.0,78,0.01,,,0.01,,2013-05-26 00:52:00,
2013-05-25 18:01:00,57.0,50.0,30.01,WNW,293,0.0,3.0,78,0.00,,,0.01,,2013-05-26 01:01:00,
2013-05-25 18:11:00,57.0,50.0,30.01,WNW,293,0.0,3.0,78,0.00,,,0.01,,2013-05-26 01:11:00,
2013-05-25 18:21:00,56.0,51.0,30.01,WNW,293,0.0,8.0,82,0.00,,,0.01,,2013-05-26 01:21:00,
2013-05-25 18:32:00,55.0,50.0,30.00,NW,319,0.0,5.0,83,0.00,,,0.01,,2013-05-26 01:32:00,
2013-05-25 18:42:00,55.0,50.0,30.00,NW,319,0.0,5.0,83,0.00,,,0.01,,2013-05-26 01:42:00,
2013-05-25 18:52:00,54.0,50.0,30.00,WNW,291,1.0,6.0,86,0.00,,,0.01,,2013-05-26 01:52:00,
2013-05-25 19:02:00,54.0,50.0,30.00,West,273,0.0,3.0,87,0.00,,,0.01,,2013-05-26 02:02:00,
2013-05-25 19:11:00,54.0,50.0,30.00,West,273,0.0,3.0,87,0.00,,,0.01,,2013-05-26 02:11:00,
2013-05-25 19:21:00,54.0,51.0,30.00,West,276,0.0,4.0,88,0.00,,,0.01,,2013-05-26 02:21:00,
2013-05-25 19:32:00,54.0,51.0,30.00,NW,320,1.0,4.0,88,0.00,,,0.01,,2013-05-26 02:32:00,
2013-05-25 19:41:00,54.0,51.0,30.00,NW,320,1.0,4.0,88,0.00,,,0.01,,2013-05-26 02:41:00,
2013-05-25 19:52:00,54.0,51.0,30.00,WNW,292,0.0,2.0,88,0.00,,,0.01,,2013-05-26 02:52:00,
2013-05-25 20:01:00,54.0,51.0,30.00,West,276,0.0,4.0,89,0.00,,,0.01,,2013-05-26 03:01:00,
2013-05-25 20:11:00,54.0,51.0,30.00,West,276,0.0,4.0,89,0.00,,,0.01,,2013-05-26 03:11:00,
2013-05-25 20:21:00,54.0,51.0,29.99,WNW,285,0.0,3.0,88,0.00,,,0.01,,2013-05-26 03:21:00,
2013-05-25 20:33:00,53.0,50.0,29.99,WNW,289,0.0,4.0,89,0.00,,,0.01,,2013-05-26 03:33:00,
2013-05-25 20:42:00,53.0,50.0,29.99,WNW,289,0.0,4.0,89,0.00,,,0.01,,2013-05-26 03:42:00,
2013-05-25 20:53:00,53.0,50.0,29.98,WSW,254,0.0,0.0,89,0.00,,,0.01,,2013-05-26 03:53:00,
2013-05-25 21:02:00,53.0,50.0,29.98,WNW,300,0.0,2.0,90,0.00,,,0.01,,2013-05-26 04:02:00,
2013-05-25 21:12:00,53.0,50.0,29.98,WNW,300,0.0,2.0,90,0.00,,,0.01,,2013-05-26 04:12:00,
2013-05-25 21:23:00,53.0,50.0,29.98,WNW,290,0.0,2.0,91,0.00,,,0.01,,2013-05-26 04:23:00,
2013-05-25 21:33:00,52.0,50.0,29.98,WNW,295,0.0,0.0,92,0.00,,,0.01,,2013-05-26 04:33:00,
2013-05-25 21:42:00,52.0,50.0,29.98,WNW,295,0.0,0.0,92,0.00,,,0.01,,2013-05-26 04:42:00,
2013-05-25 21:52:00,52.0,50.0,29.98,WNW,291,0.0,2.0,92,0.00,,,0.01,,2013-05-26 04:52:00,
2013-05-25 22:02:00,52.0,50.0,29.98,West,277,0.0,2.0,93,0.00,,,0.01,,2013-05-26 05:02:00,
2013-05-25 22:12:00,52.0,50.0,29.98,West,277,0.0,2.0,93,0.00,,,0.01,,2013-05-26 05:12:00,
2013-05-25 22:21:00,52.0,50.0,29.98,WNW,283,0.0,3.0,93,0.00,,,0.01,,2013-05-26 05:21:00,
2013-05-25 22:32:00,52.0,50.0,29.98,WNW,290,0.0,3.0,93,0.00,,,0.01,,2013-05-26 05:32:00,
2013-05-25 22:42:00,52.0,50.0,29.98,WNW,290,0.0,3.0,93,0.00,,,0.01,,2013-05-26 05:42:00,
2013-05-25 22:52:00,51.0,49.0,29.97,WNW,282,0.0,2.0,93,0.00,,,0.01,,2013-05-26 05:52:00,
2013-05-25 23:01:00,51.0,49.0,29.97,WNW,290,0.0,1.0,94,0.00,,,0.01,,2013-05-26 06:01:00,
2013-05-25 23:11:00,51.0,49.0,29.97,WNW,290,0.0,1.0,94,0.00,,,0.01,,2013-05-26 06:11:00,
2013-05-25 23:21:00,51.0,49.0,29.97,WNW,285,0.0,2.0,94,0.00,,,0.01,,2013-05-26 06:21:00,
2013-05-25 23:32:00,51.0,50.0,29.97,WNW,296,0.0,1.0,95,0.00,,,0.01,,2013-05-26 06:32:00,
2013-05-25 23:41:00,51.0,50.0,29.97,WNW,296,0.0,1.0,95,0.00,,,0.01,,2013-05-26 06:41:00,
2013-05-25 23:51:00,50.0,49.0,29.97,WNW,288,0.0,2.0,95,0.00,,,0.01,,2013-05-26 06:51:00,